Starlink 31667

operational
NORAD ID: 59609 Int'l Des: 2024-080 Owner: SPXS Country: US Constellation: starlink
LEOCIRCULAR

关于 Starlink 31667

正在加载描述...

实时位置

正在加载3D地球...

即将过境

高度历史

Altitude vs Time

uPlot chart will show altitude changes over time

两行轨道根数

1 59609U 24080J 25258.42728092 .00000197 00000-0 16674-4 0 9994
2 59609 43.0010 303.7930 0001513 279.0859 80.9822 15.27575838 77772
Epoch: Sep 15, 2025 • Age: 12 hours

当前状态

高度 486.6 km
速度 7.62 km/s
星下点 -19.45°S, 56.64°W
发射日期 Apr 28, 2024
运行时间 1.3 years
类型 internet

技术详情

分类 Payload
质量 730.00 kg
干质量 700.00 kg
总质量 730.00 kg
长度 0.30 m
直径 4.10 m
跨度 29.00 m
形状 Box + pan
制造商 SPXS
平台类型 Starlink V2M
阶段状态 In Orbit
所有者/国家 SPXS/US

大型星座

Loading constellations...